Regional Weather Roundup
Issued by NWS New Orleans/Baton Rouge, LA

Home | Current Version | Previous Version | Text Only | Print | Product List | Glossary On
Versions: 1 2 3 4 5 6 7 8 9 10 11 12 13 14 15 16 17 18 19 20 21 22 23 24 25 26 27 28 29 30 31 32 33 34 35 36 37 38 39 40 41 42 43 44 45 46 47 48 49 50
417
ASUS44 KLIX 192310
RWRLIX
NEW ORLEANS REGIONAL WEATHER ROUNDUP
NATIONAL WEATHER SERVICE NEW ORLEANS LA
600 PM CDT SUN OCT 19 2014

NOTE: "FAIR" INDICATES FEW OR NO CLOUDS BELOW 12,000 FEET WITH NO
      SIGNIFICANT WEATHER AND/OR OBSTRUCTIONS TO VISIBILITY.
      SKY/WX - SKY CONDITION AND SIGNIFICANT WEATHER.
      TMP - AIR TEMPERATURE.     DP    - DEWPOINT TEMPERATURE.
      RH  - RELATIVE HUMIDITY.   PRES  - PRESSURE.
      HI  - HEAT INDEX.          WCI   - WIND CHILL INDEX.

*  THESE STATIONS ARE NOT NWS OR FAA STATIONS AND ARE NOT UNDER
   NWS QUALITY CONTROL.

LAZ038-040-048-061>063-065>067-069-200000-
SOUTHEAST LOUISIANA

CITY           SKY/WX    TMP DP  RH WIND       PRES   REMARKS
N.O. AUDUBON   NOT AVBL
N.O. INTL ARPT PTCLDY    73  54  51 NE6       30.05R
N.O. LAKEFRONT CLEAR     72  56  57 SE5       30.05S
N.O. DOWNTOWN*   N/A     73  52  46 CALM      30.06R
SLIDELL        CLEAR     72  56  57 SW3       30.05R
BATON ROUGE    CLEAR     73  55  53 NE5       30.05R
BOOTHVILLE     CLEAR     73  65  75 NE7       30.04S
BELLE CHASSE   CLEAR     72  58  61 E5        30.04S
BOGALUSA*        N/A     72  49  44 N5        30.07S
NEW ROADS*       N/A     72  55  54 N3        30.05S
GONZALES*        N/A     73  59  59 CALM      30.05R
HAMMOND*       CLEAR     73  52  46 CALM      30.07R
HOUMA*         CLEAR     73  63  68 E6        30.04R
PORT FOURCHON* PTCLDY    75  66  73 NE12      30.06R

$$

MSZ070-080>082-200000-
SOUTHERN MISSISSIPPI

CITY           SKY/WX    TMP DP  RH WIND       PRES   REMARKS
MCCOMB         CLEAR     72  47  40 CALM      30.07R
GULFPORT       CLEAR     71  55  56 CALM      30.04S
BILOXI         CLEAR     71  53  53 S3        30.05R
PASCAGOULA     CLEAR     69  53  56 S3        30.05S
STENNIS ARPT*  CLEAR     72  52  49 CALM      30.05S

$$

COASTAL OBSERVATIONS
LAKE AND NEARSHORE STATIONS

STATION/POSITION TIME  TEMP    WIND        PRES    WAVE
                       AIR SEA DIR/SP/G            HT/PER
                 (UTC) (F)     (DEG/KT/KT) (MB)    (FT/S)
PASCAGOULA       2300   72     200/  4/  5 1017.0
WAVELAND YACHT   2300   72     170/  3/  4 1016.7
GRAND ISLE       2300   73 78   60/ 10/ 14 1017.4
SOUTHWEST PASS   2300   80 85              1016.8
NEW CANAL        2300   73 73  100/  2/  5 1017.8
SHELL BEACH      2300   70 71  100/  7/  9 1017.3

OFFSHORE STATIONS

STATION/POSITION TIME  TEMP    WIND        PRES    WAVE
                       AIR SEA DIR/SP/G            HT/PER
                 (UTC) (F)     (DEG/KT/KT) (MB)    (FT/S)
64 S DAUPHIN ISL 2236   73 80   70/ 10/ 12 1017.5    3/ 6

$$




USA.gov is the U.S. government's official web portal to all federal, state and local government web resources and services.